Regional Weather Roundup
Issued by NWS

Home | Current Version | Previous Version | Text Only | Print | Product List | Glossary Off
Versions: 1 2 3 4 5 6 7 8 9 10 11 12 13 14 15 16 17 18 19 20 21 22 23 24 25 26 27 28 29 30 31 32 33 34 35 36 37 38 39 40 41 42 43 44 45 46 47 48 49 50

426
ASUS45 KBOU 191910
RWRCO

WEATHER ROUNDUP FOR COLORADO
NATIONAL WEATHER SERVICE DENVER/BOULDER CO
1200 PM MST MON FEB 19 2018

NOTE: "FAIR" INDICATES FEW OR NO CLOUDS BELOW 12000 FEET WITH NO
SIGNIFICANT WEATHER AND/OR OBSTRUCTIONS TO VISIBILITY.

COZ001>005-013-030-031-192000-
...NORTHWEST COLORADO...

CITY           SKY/WX    TMP DP  RH WIND       PRES   REMARKS
CRAIG          LGT SNOW  14   8  77 W12       29.39F WCI   0
HAYDEN         LGT SNOW  13   9  84 W12       29.35F FOG     WCI  -1
MEEKER         CLOUDY    33  27  78 W10       29.29S WCI  25
RANGELY        SNOW      15  10  80 E24G33    29.39S VSB 1/2 WCI  -4
RABBIT EARS PA LGT SNOW  23  18  80 S9G29     29.30R WCI  13
STEAMBOAT SPGS CLOUDY    27  24  87 W6        29.30F WCI  20
WALDEN         FAIR      34  19  55 S29G43    29.29F WCI  20
$$

COZ006>008-011-192000-
...WEST CENTRAL VALLEYS...

CITY           SKY/WX    TMP DP  RH WIND       PRES   REMARKS
GRAND JUNCTION CLOUDY    48  26  42 W25G37    29.35R
MONTROSE       PTSUNNY   51  16  24 SW37G58   29.37F HAZE
EAGLE          CLOUDY    40  23  50 SW21G31   29.33F
RIFLE          LGT RAIN  38  35  89 W12       29.32R
DELTA          CLOUDY    45  32  60 SW22G36   29.40R
NUCLA          PTSUNNY   43  28  56 SW23G49   29.44F
$$

COZ017>023-064>068-192000-
...SOUTHWEST COLORADO...

CITY           SKY/WX    TMP DP  RH WIND       PRES   REMARKS
DURANGO        LGT RAIN  42  31  64 SW25G39   29.52F
CORTEZ         LGT RAIN  43  31  62 SW30G46   29.49F
PAGOSA SPRINGS LGT SNOW  37  32  84 S22G29    29.53F
TELLURIDE      LGT SNOW  32  20  61 W13G23    29.47F WCI  22
WOLF CREEK PAS   N/A     19  19 100 SW41      29.45F WCI  -2
$$

COZ009-010-012-014-032>034-037-058>063-192000-
...CENTRAL COLORADO...

CITY           SKY/WX    TMP DP  RH WIND       PRES   REMARKS
ASPEN          CLOUDY    33  25  72 N5        29.31F WCI  29
BUENA VISTA    CLOUDY    42  17  36 W5        29.35F
COPPER MTN     CLOUDY    25  14  63 S13G23    29.38F HAZE    WCI  13
BERTHOUD PASS  PTSUNNY   19   9  63 SW15G31   29.38F WCI   5
COTTONWOOD PAS CLOUDY    36  21  55 S8        29.39F
GUNNISON       FAIR      39  20  46 SW8       29.39
GRANBY         CLOUDY    35  20  55 W14       29.33F WCI  26
KREMMLING      PTSUNNY   41  28  60 SE6       29.33F
LEADVILLE      CLOUDY    26  16  65 MISG      29.34F
MONARCH PASS   CLOUDY    21  19  93 SW52G68   29.49F WCI  -1
SALIDA         CLOUDY    43  25  48 S13G26    29.46F
SUNLIGHT       LGT SNOW  21  19  93 SW18G38   29.34F WCI   6
WILKERSON PASS CLOUDY    30  19  64 S15G28    29.43F WCI  19
$$

COZ069>075-192000-
...SAN LUIS VALLEY/SANGRE DE CRISTO MOUNTAINS...

CITY           SKY/WX    TMP DP  RH WIND       PRES   REMARKS
ALAMOSA        LGT RAIN  40  33  76 S28G39    29.53S
DEL NORTE      PTSUNNY   38  27  65 S18G32    29.47F
LA VETA PASS   CLOUDY    32  25  74 S30G54    29.63F WCI  18
SAGUACHE       LGT SNOW  36  30  80 W22G38    29.48F
$$

COZ035-036-038>040-192000-
...NORTHERN COLORADO FRONT RANGE...

CITY           SKY/WX    TMP DP  RH WIND       PRES   REMARKS
DENVER INTL AP LGT SNOW  13   8  81 E10       29.60F WCI   0
AURORA         FLURRIES  13  11  91 E8        29.58F WCI   2
FRONT RANGE AP LGT SNOW  14  12  92 E9        29.60F WCI   2
ERIE MUNI ARPT LGT SNOW  14   9  83 NE5       29.68F WCI   6
BOULDER MUN AP LGT SNOW  14  10  85 CALM      29.62F
CENTENNIAL     LGT SNOW  14  11  87 NE6       29.56F FOG     WCI   5
BROOMFIELD     LGT SNOW  12  10  92 NE3       29.59F VSB 1
FORT COLLINS   FLURRIES  14   8  77 SE9       29.65F WCI   2
LONGMONT       NOT AVBL
$$

COZ041-046-047-076>085-087-088-192000-
...PIKES PEAK/PALMER DIVIDE AND SOUTHERN FOOTHILLS...

CITY           SKY/WX    TMP DP  RH WIND       PRES   REMARKS
COLO. SPRINGS  LGT SNOW  16  14  92 S12       29.57F VSB 3/4 WCI   3
A. F. ACADEMY  LGT SNOW  15  12  90 S8        29.53F FOG     WCI   4
SCHRIEVER AFB  NOT AVBL
CHEYENNE MTN   SNOWSHWR  14  12  92 SE9       29.46F WCI   2
ELLICOTT         N/A    N/A N/A N/A S12       29.56F
FALCON         SNOW      15  14  95 MISG      29.53F VSB 1/2
FORT CARSON    NOT AVBL
LIMON          NOT AVBL
MONUMENT HILL  CLOUDY   N/A N/A N/A SE15      29.50F
CANON CITY     CLOUDY    21  19  93 SE9       29.62F FOG     WCI  11
WALSENBURG     NOT AVBL
TRINIDAD       CLOUDY    26  21  81 NE7       29.57F WCI  18
$$

COZ042>045-048>051-090-091-192000-
...NORTHEAST COLORADO...

CITY           SKY/WX    TMP DP  RH WIND       PRES   REMARKS
GREELEY ARPT   FLURRIES  13   8  81 SE10      29.68F WCI   0
AKRON          LGT SNOW  10   7  87 NE10      29.68F FOG     WCI  -4
BURLINGTON     LGT SNOW  16  12  84 N5        29.71F FOG     WCI   9
WRAY           FLURRIES  16  12  86 N9        29.78F WCI   4
YUMA           NOT AVBL
STERLING       LGT SNOW  12   9  85 NE8       29.75F WCI   1
HOLYOKE        LGT SNOW  18  10  73 NE13      29.79S WCI   4
FORT MORGAN    LGT SNOW  13   7  75 E10       29.70F WCI   0
$$

COZ086-089-092>099-192000-
...SOUTHEAST COLORADO...

CITY           SKY/WX    TMP DP  RH WIND       PRES   REMARKS
PUEBLO         FLURRIES  20  14  77 SE9       29.66F WCI   9
LA JUNTA       CLOUDY    22  12  65 E6        29.69F WCI  14
LAMAR          CLOUDY    24  11  57 SE6       29.72F WCI  17
SPRINGFIELD      N/A     27  20  75 VRB5      29.67F WCI  22
$$




USA.gov is the U.S. government's official web portal to all federal, state and local government web resources and services.